#timestamp,LO_Frequency,Hit,Temp,Hum 
1478523615.1,286046997.4,N,0.0,0.0
1478523616.0,286046997.4,N,0.0,0.0
1478523635.8,286046997.1,N,0.0,0.0
1478523655.6,286046995.1,N,0.0,0.0
1478523675.5,286046996.9,N,0.0,0.0
1478523695.3,286046995.1,N,0.0,0.0
1478523715.1,286046995.7,N,0.0,0.0
1478523735.9,286046995.9,N,0.0,0.0
1478523755.7,286046995.8,N,0.0,0.0
1478523775.6,286046993.8,N,0.0,0.0
1478523795.4,286046996.0,N,0.0,0.0
1478523815.2,286046993.6,N,0.0,0.0
1478523835.1,286046996.3,N,0.0,0.0
1478523836.0,286046996.3,N,0.0,0.0
1478523855.8,286046996.3,N,0.0,0.0
1478523875.6,286046995.2,N,0.0,0.0
1478523895.5,286046995.7,N,0.0,0.0
1478523915.3,286046997.2,N,0.0,0.0
1478523935.1,286046999.0,N,0.0,0.0
1478523955.9,286047001.0,N,0.0,0.0
1478523975.7,286046998.6,N,0.0,0.0
1478523995.5,286046996.5,N,0.0,0.0
1478524015.4,286046997.1,N,0.0,0.0
1478524035.2,286046995.0,N,0.0,0.0
1478524055.1,286046997.1,N,0.0,0.0
1478524056.0,286046997.1,N,0.0,0.0
1478524075.8,286046999.6,N,0.0,0.0
1478524095.6,286046996.5,N,0.0,0.0
1478524115.5,286046997.8,N,0.0,0.0
1478524135.3,286046997.4,N,0.0,0.0
1478524155.1,286046996.7,N,0.0,0.0
1478524175.9,286046997.3,N,0.0,0.0
1478524195.7,286046995.1,N,0.0,0.0
1478524215.6,286046996.2,N,0.0,0.0
1478524235.4,286046996.3,N,0.0,0.0
1478524255.2,286046996.2,N,0.0,0.0
1478524275.1,286046995.8,N,0.0,0.0
1478524276.0,286046995.8,N,0.0,0.0
1478524295.8,286046998.0,N,0.0,0.0
1478524315.6,286046997.1,N,0.0,0.0
1478524335.5,286046996.5,N,0.0,0.0
1478524355.3,286046998.7,N,0.0,0.0
1478524375.1,286046997.0,N,0.0,0.0
1478524395.9,286046996.8,N,0.0,0.0
1478524415.7,286046997.3,N,0.0,0.0
1478524435.6,286046995.6,N,0.0,0.0
1478524455.4,286046995.4,N,0.0,0.0
1478524475.2,286046997.7,N,0.0,0.0
1478524495.1,286046997.7,N,0.0,0.0
1478524496.0,286046997.7,N,0.0,0.0
1478524515.8,286046995.6,N,0.0,0.0
1478524535.6,286046995.0,N,0.0,0.0
1478524555.5,286046997.8,N,0.0,0.0
1478524575.3,286046998.9,N,0.0,0.0
1478524595.1,286046998.9,N,0.0,0.0
1478524615.9,286046998.7,N,0.0,0.0
1478524635.7,286046998.3,N,0.0,0.0
1478524655.6,286047001.0,N,0.0,0.0
1478524675.4,286047000.6,N,0.0,0.0
1478524695.2,286046998.1,N,0.0,0.0
1478524715.1,286046999.1,N,0.0,0.0
1478524716.0,286046999.1,N,0.0,0.0
1478524735.8,286046999.2,N,0.0,0.0
1478524755.6,286046999.6,N,0.0,0.0
1478524775.5,286046999.5,N,0.0,0.0
1478524795.3,286046996.5,N,0.0,0.0
1478524815.1,286046999.4,N,0.0,0.0
1478524835.9,286046999.3,N,0.0,0.0
1478524855.7,286047002.6,N,0.0,0.0
1478524875.6,286047002.2,N,0.0,0.0
1478524895.4,286047000.2,N,0.0,0.0
1478524915.2,286047002.8,N,0.0,0.0
1478524935.1,286047001.2,N,0.0,0.0
1478524936.0,286047001.2,N,0.0,0.0
1478524955.8,286046998.5,N,0.0,0.0
1478524975.6,286047001.2,N,0.0,0.0
1478524995.5,286046998.7,N,0.0,0.0
1478525015.3,286046998.6,N,0.0,0.0
1478525035.1,286046998.5,N,0.0,0.0
1478525055.9,286046998.4,N,0.0,0.0
1478525075.7,286047000.6,N,0.0,0.0
1478525095.6,286047000.6,N,0.0,0.0
1478525115.4,286047002.6,N,0.0,0.0
1478525135.2,286047000.4,N,0.0,0.0
1478525155.1,286046998.4,N,0.0,0.0
1478525156.0,286046998.4,N,0.0,0.0
1478525175.8,286046999.3,N,0.0,0.0
1478525195.6,286046999.1,N,0.0,0.0
1478525215.5,286046997.3,N,0.0,0.0
1478525235.3,286046998.8,N,0.0,0.0
1478525255.1,286047000.4,N,0.0,0.0
1478525275.9,286047000.0,N,0.0,0.0
1478525295.7,286047000.4,N,0.0,0.0
1478525315.6,286046998.7,N,0.0,0.0
1478525335.4,286046999.5,N,0.0,0.0
1478525355.2,286046998.5,N,0.0,0.0
1478525375.1,286047002.6,N,0.0,0.0
1478525376.0,286047002.6,N,0.0,0.0
1478525395.8,286047002.7,N,0.0,0.0
1478525415.6,286047002.7,N,0.0,0.0
1478525435.5,286047001.9,N,0.0,0.0
1478525455.3,286047001.3,N,0.0,0.0
1478525475.2,286047002.4,N,0.0,0.0
1478525495.9,286046999.7,N,0.0,0.0
1478525515.7,286047000.2,N,0.0,0.0
1478525535.6,286047000.1,N,0.0,0.0
1478525555.4,286046996.6,N,0.0,0.0
1478525575.2,286046998.8,N,0.0,0.0
1478525595.1,286047000.1,N,0.0,0.0
1478525596.0,286047000.1,N,0.0,0.0
1478525615.8,286047005.6,N,0.0,0.0
1478525635.6,286047002.7,N,0.0,0.0
1478525655.5,286046999.9,N,0.0,0.0
1478525675.3,286046998.2,N,0.0,0.0
1478525695.2,286046998.2,N,0.0,0.0
1478525715.9,286046998.5,N,0.0,0.0
1478525735.7,286046998.1,N,0.0,0.0
1478525755.6,286047000.0,N,0.0,0.0
1478525775.4,286046998.4,N,0.0,0.0
1478525795.2,286046997.0,N,0.0,0.0
1478525815.1,286046997.5,N,0.0,0.0
1478525816.0,286046997.5,N,0.0,0.0
1478525835.8,286046999.2,N,0.0,0.0
1478525855.7,286046998.6,N,0.0,0.0
1478525875.5,286046997.9,N,0.0,0.0
1478525895.3,286046995.5,N,0.0,0.0
1478525915.2,286046997.3,N,0.0,0.0
1478525935.9,286046995.4,N,0.0,0.0
1478525955.7,286046995.2,N,0.0,0.0
1478525975.6,286046998.0,N,0.0,0.0
1478525995.4,286046997.2,N,0.0,0.0
1478526015.2,286046996.9,N,0.0,0.0
1478526035.1,286046995.7,N,0.0,0.0
1478526036.0,286046995.7,N,0.0,0.0
1478526055.8,286046993.6,N,0.0,0.0
1478526075.7,286046996.0,N,0.0,0.0
1478526095.5,286046993.4,N,0.0,0.0
1478526115.3,286046993.3,N,0.0,0.0
1478526135.2,286046993.4,N,0.0,0.0
1478526155.9,286046993.6,N,0.0,0.0
1478526175.7,286046994.5,N,0.0,0.0
1478526195.6,286046995.1,N,0.0,0.0
1478526215.4,286046995.9,N,0.0,0.0
1478526235.2,286046994.5,N,0.0,0.0
1478526255.1,286046991.8,N,0.0,0.0
1478526256.0,286046991.8,N,0.0,0.0
1478526275.8,286046994.7,N,0.0,0.0
1478526295.7,286046994.7,N,0.0,0.0
1478526315.5,286046992.2,N,0.0,0.0
1478526335.3,286046994.8,N,0.0,0.0
1478526355.2,286046991.4,N,0.0,0.0
1478526375.9,286046992.0,N,0.0,0.0
1478526395.7,286046994.8,N,0.0,0.0
1478526415.6,286046993.2,N,0.0,0.0
1478526435.4,286046992.3,N,0.0,0.0
1478526455.2,286046992.1,N,0.0,0.0
1478526475.1,286046994.5,N,0.0,0.0
1478526476.0,286046994.5,N,0.0,0.0
1478526495.8,286046993.6,N,0.0,0.0
1478526515.7,286046997.9,N,0.0,0.0
1478526535.5,286046990.1,N,0.0,0.0
1478526555.3,286046993.1,N,0.0,0.0
1478526575.2,286046990.1,N,0.0,0.0
1478526595.9,286046990.5,N,0.0,0.0
1478526615.7,286046990.1,N,0.0,0.0
1478526635.6,286046991.5,N,0.0,0.0
1478526655.4,286046990.6,N,0.0,0.0
1478526675.2,286046994.2,N,0.0,0.0
1478526695.1,286046994.3,N,0.0,0.0
1478526696.0,286046994.3,N,0.0,0.0
1478526715.8,286046992.4,N,0.0,0.0
1478526735.7,286046991.7,N,0.0,0.0
1478526755.5,286046994.7,N,0.0,0.0
1478526775.3,286046991.7,N,0.0,0.0
1478526795.2,286046994.7,N,0.0,0.0
1478526815.0,286046993.9,N,0.0,0.0
1478526815.9,286046993.9,N,0.0,0.0
1478526835.7,286046994.6,N,0.0,0.0
1478526855.6,286046994.7,N,0.0,0.0
1478526875.4,286046994.3,N,0.0,0.0
1478526895.3,286046994.8,N,0.0,0.0
1478526915.1,286046992.2,N,0.0,0.0
1478526916.0,286046992.2,N,0.0,0.0
1478526935.8,286046992.5,N,0.0,0.0
1478526955.7,286046994.8,N,0.0,0.0
1478526975.5,286046992.3,N,0.0,0.0
1478526995.3,286046992.1,N,0.0,0.0
1478527015.2,286046994.0,N,0.0,0.0
1478527035.0,286046993.5,N,0.0,0.0
1478527035.9,286046993.5,N,0.0,0.0
1478527055.8,286046993.9,N,0.0,0.0
1478527075.6,286046996.0,N,0.0,0.0
1478527095.4,286046993.7,N,0.0,0.0
1478527115.3,286046993.4,N,0.0,0.0
1478527135.1,286046996.1,N,0.0,0.0
1478527136.0,286046996.1,N,0.0,0.0
1478527155.8,286046995.9,N,0.0,0.0
1478527175.7,286046993.7,N,0.0,0.0
1478527195.5,286046994.0,N,0.0,0.0
